Regional Weather Roundup
Issued by NWS

Home | Current Version | Previous Version | Text Only | Print | Product List | Glossary Off
Versions: 1 2 3 4 5 6 7 8 9 10 11 12 13 14 15 16 17 18 19 20 21 22 23 24 25 26 27 28 29 30 31 32 33 34 35 36 37 38 39 40 41 42 43 44 45 46 47 48 49 50

000
ASUS43 KIND 041959
RWRIN

WEATHER ROUNDUP FOR INDIANA
NATIONAL WEATHER SERVICE INDIANAPOLIS IN
300 PM EST WED MAR 04 2015

NOTE: "FAIR" INDICATES FEW OR NO CLOUDS BELOW 12,000 FEET WITH NO
SIGNIFICANT WEATHER AND/OR OBSTRUCTIONS TO VISIBILITY.

* - STATION DOES NOT REPORT WEATHER SUCH AS PRECIPITATION OR FOG.

+ - STATION NOT QUALITY CONTROLLED BY THE NATIONAL WEATHER SERVICE.
    USE DATA WITH CAUTION...ESPECIALLY DEWPOINT AND RELATIVE
    HUMIDITY OBSERVATIONS.

INZ001>003-010>013-019-020-042100-
NORTHWEST INDIANA

CITY           SKY/WX    TMP DP  RH WIND       PRES   REMARKS
GARY /AIRPORT/ CLOUDY    25   7  46 NW12G23   30.14  WCI  14
VALPARAISO     NOT AVBL

$$

LMZ046-743>745-042100-
SOUTHERN LAKE MICHIGAN

STATION/POSITION TIME  TEMP WIND        PRES
                       AIR  DIR/SP/G
                 (UTC) (F)  (DEG/KT/KT) (MB)
MICHIGAN CITY    1900   21  300/ 16/ 20   N/A

$$

INZ004-005-014>016-021>024-042100-
NORTH CENTRAL INDIANA

CITY           SKY/WX    TMP DP  RH WIND       PRES   REMARKS
ELKHART        PTSUNNY   25   9  50 NW15G21   30.09R WCI  12
GOSHEN         CLOUDY    23  14  68 NW14      30.06S WCI  11
SOUTH BEND     PTSUNNY   23  11  60 NW18      30.10R WCI   9

$$

INZ006>009-017-018-025>027-042100-
NORTHEAST INDIANA

CITY           SKY/WX    TMP DP  RH WIND       PRES   REMARKS
ANGOLA *+      PTSUNNY   27  16  63 NW13      30.02R WCI  16
FORT WAYNE     CLOUDY    29  21  72 NW13      30.05R WCI  19

$$

INZ028-029-035-036-043>045-051>053-042100-
WEST CENTRAL INDIANA

CITY           SKY/WX    TMP DP  RH WIND       PRES   REMARKS
CRAWFORDSVL +  CLOUDY    19   9  66 NW17      30.13F WCI   4
GREENCASTLE +  CLOUDY    25  12  58 NW12      30.11F WCI  14
LAFAYETTE      CLOUDY    19  12  74 W16       30.13F WCI   4
TERRE HAUTE    CLOUDY    20  12  71 NW15      30.14F WCI   6

$$

INZ030>032-037>040-046>048-054>057-064-065-042100-
CENTRAL INDIANA

CITY           SKY/WX    TMP DP  RH WIND       PRES   REMARKS
ANDERSON       PTSUNNY   27  21  80 W12G23    30.07R WCI  16
COLUMBUS       LGT SNOW  30  25  80 NW14      30.06S FOG     WCI  20
GREENWOOD *+   CLOUDY    28  19  69 NW9G17    30.06S WCI  20
INDIANAPOLIS   CLOUDY    25  18  74 NW17      30.07R WCI  12
-EAGLE CREEK   CLOUDY    23  17  78 NW15      30.08R WCI  10
KOKOMO *+        N/A    N/A N/A N/A MISG        N/A
MT COMFORT *+  CLOUDY    28  16  59 NW15      30.07S WCI  17
SHELBYVILLE    CLOUDY    32  23  69 W17       30.05R WCI  21

$$

INZ033-034-041-042-049-050-058-059-042100-
EAST CENTRAL INDIANA

CITY           SKY/WX    TMP DP  RH WIND       PRES   REMARKS
MUNCIE         CLOUDY    29  23  78 NW18      30.04R HAZE    WCI  16

$$

INZ060-061-067>069-081>083-085>088-042100-
SOUTHWEST INDIANA

CITY           SKY/WX    TMP DP  RH WIND       PRES   REMARKS
EVANSVILLE     LGT SNOW  26  22  84 NW13G23   30.10F FOG     WCI  15
HUNTINGBURG *+ CLOUDY    27  21  80 NW18G24   30.07F VSB 1   WCI  13

$$

INZ062-063-066-070>080-084-089>092-042100-
SOUTH CENTRAL AND SOUTHEAST INDIANA

CITY           SKY/WX    TMP DP  RH WIND       PRES   REMARKS
BLOOMINGTON    LGT SNOW  29  23  78 NW6       30.06F WCI  23
SEYMOUR +      LGT SNOW  34  30  86 N12       30.03F WCI  25

$$



USA.gov is the U.S. government's official web portal to all federal, state and local government web resources and services.